Ottumwa, IA

11:06 PM CDT on October 23, 2017 (GMT -0500)
Ottumwa Industrial

Weather History for KOTM - November, 2012

Change the Weather History Date:

Friday, November 9, 2012

  Actual Average Record
Temperature  
Mean Temperature 52 °F 43 °F  
Max Temperature 63 °F 53 °F 77 °F (1999)
Min Temperature 40 °F 33 °F 10 °F (1925)
Degree Days  
Heating Degree Days 13 22  
Month to date heating degree days 194 183  
Since 1 July heating degree days 777 707  
Cooling Degree Days 0 0  
Month to date cooling degree days 0 0  
Year to date cooling degree days 1235 938  
Growing Degree Days 2 (Base 50)    
Moisture  
Dew Point 44 °F    
Average Humidity 70    
Maximum Humidity 83    
Minimum Humidity 56    
Precipitation  
Precipitation 0.00 in 0.09 in 2.20 in (1919)
Month to date precipitation 0.21 0.80  
Year to date precipitation 23.96 34.12  
Sea Level Pressure  
Sea Level Pressure 29.89 in    
Wind  
Wind Speed 8 mph (SE)    
Max Wind Speed 13 mph    
Max Gust Speed 16 mph    
Visibility 10 miles    
Events Rain    
T = Trace of Precipitation, MM = Missing Value Source: NWS Daily Summary

Daily Weather History Graph

Daily Weather History Graph

Search for Another Location

Airport or City:

Trip Planner

Search our weather history database for the weather conditions in past years. The results will help you decide how hot, cold, wet, or windy it might be!

Date:

Astronomy

Nov. 09, 2012 Rise Set
Actual Time 6:50 AM CST 4:55 PM CST
Civil Twilight 6:21 AM CST 5:25 PM CST
Nautical Twilight 5:48 AM CST 5:58 PM CST
Astronomical Twilight 5:16 AM CST 6:30 PM CST
Moon 1:47 AM CST (11/9) 2:11 PM CST (11/9)
Length of Visible Light 11h 03m
Length of Day
10h 04m
Waning Crescent, 23% of the Moon is Illuminated
Nov 9
Waning Crescent
Nov 13
New
Nov 20
First Quarter
Nov 28
Full
Dec 6
Last Quarter

Hourly Weather History & Observations

Time (CST) Temp. Windchill Dew Point Humidity Pressure Visibility Wind Dir Wind Speed Gust Speed Precip Events Conditions
12:53 AM 44.1 °F 39.5 °F 37.0 °F 76% 29.96 in 10.0 mi South 8.1 mph - N/A   Clear
1:53 AM 44.1 °F 39.0 °F 37.0 °F 76% 29.96 in 10.0 mi South 9.2 mph - N/A   Clear
2:53 AM 44.1 °F 39.0 °F 37.0 °F 76% 29.95 in 10.0 mi SSE 9.2 mph - N/A   Clear
3:53 AM 41.0 °F 37.1 °F 36.0 °F 82% 29.95 in 10.0 mi SE 5.8 mph - N/A   Clear
4:53 AM 44.1 °F 40.1 °F 37.0 °F 76% 29.96 in 10.0 mi SSE 6.9 mph - N/A   Mostly Cloudy
5:53 AM 44.1 °F 40.1 °F 37.0 °F 76% 29.94 in 10.0 mi SSE 6.9 mph - N/A   Overcast
6:53 AM 45.0 °F 40.1 °F 37.9 °F 76% 29.94 in 10.0 mi SSE 9.2 mph - N/A   Overcast
7:53 AM 46.9 °F - 39.0 °F 74% 29.95 in 10.0 mi SSE 9.2 mph - N/A   Clear
8:53 AM 50.0 °F - 39.9 °F 68% 29.95 in 10.0 mi SSE 11.5 mph - N/A   Clear
9:53 AM 53.1 °F - 42.1 °F 66% 29.95 in 10.0 mi SSE 8.1 mph - N/A   Clear
10:53 AM 57.0 °F - 44.1 °F 62% 29.93 in 10.0 mi South 9.2 mph - N/A   Clear
11:53 AM 60.1 °F - 46.0 °F 60% 29.90 in 10.0 mi SSW 9.2 mph - N/A   Clear
12:53 PM 61.0 °F - 46.0 °F 58% 29.87 in 10.0 mi Variable 5.8 mph - 0.00 in   Clear
1:53 PM 62.1 °F - 46.9 °F 58% 29.85 in 10.0 mi SSE 8.1 mph - 0.00 in   Clear
2:53 PM 61.0 °F - 48.9 °F 64% 29.84 in 10.0 mi SE 11.5 mph - N/A   Clear
3:53 PM 60.1 °F - 48.9 °F 67% 29.84 in 10.0 mi ESE 8.1 mph - N/A   Clear
4:53 PM 59.0 °F - 48.9 °F 69% 29.83 in 10.0 mi ESE 5.8 mph - N/A   Clear
5:53 PM 57.9 °F - 48.9 °F 72% 29.84 in 10.0 mi East 8.1 mph - 0.00 in Rain Light Rain
6:53 PM 57.0 °F - 48.9 °F 74% 29.84 in 10.0 mi East 8.1 mph - 0.00 in   Overcast
7:53 PM 55.9 °F - 48.9 °F 77% 29.83 in 10.0 mi East 9.2 mph - N/A   Overcast
8:53 PM 54.0 °F - 48.0 °F 80% 29.84 in 10.0 mi East 6.9 mph - N/A   Clear
9:53 PM 55.9 °F - 50.0 °F 80% 29.84 in 10.0 mi ESE 8.1 mph - N/A   Overcast
10:53 PM 59.0 °F - 51.1 °F 75% 29.83 in 10.0 mi SE 9.2 mph - N/A   Overcast
11:53 PM 59.0 °F - 52.0 °F 78% 29.82 in 10.0 mi SSE 9.2 mph - N/A   Scattered Clouds